Location: Bieujac
(44.5398°N, 0.1549°W)
Time: 13:19:38
(UTC+00:00)

Cosmos 1328 Rocket - Pass Details

Date: 17 November 2019
Orbit: 600 x 628 km, 82.5° (Epoch: 05 December)

Event Time Altitude Azimuth Distance (km) Brightness Sun altitude
Rises 06:02:10 0° 342° (NNW) 2,875 6.6 -10.3°
Reaches altitude 10° 06:04:34 10° 332° (NNW) 1,962 5.7 -9.9°
Maximum altitude 06:08:24 32° 270° (W) 1,052 4.2 -9.2°
Drops below altitude 10° 06:12:12 10° 207° (SSW) 1,940 6.0 -8.6°
Sets 06:14:34 0° 197° (SSW) 2,836 7.0 -8.2°
